TimeEDT,TemperatureF,Dew PointF,Humidity,Sea Level PressureIn,VisibilityMPH,Wind Direction,Wind SpeedMPH,Gust SpeedMPH,PrecipitationIn,Events,Conditions,WindDirDegrees,DateUTC
12:53 AM,42.1,39.0,89,30.32,7.0,Calm,Calm,-,N/A,,Clear,0,2013-04-26 04:53:00
1:53 AM,41.0,37.9,89,30.32,7.0,Calm,Calm,-,N/A,,Clear,0,2013-04-26 05:53:00
3:53 AM,39.0,37.0,93,30.29,6.0,Calm,Calm,-,N/A,,Clear,0,2013-04-26 07:53:00
4:53 AM,39.0,37.0,93,30.29,6.0,Calm,Calm,-,N/A,,Clear,0,2013-04-26 08:53:00
5:53 AM,37.0,34.0,89,30.31,5.0,Calm,Calm,-,N/A,,Clear,0,2013-04-26 09:53:00
6:53 AM,36.0,34.0,93,30.32,5.0,Calm,Calm,-,N/A,,Clear,0,2013-04-26 10:53:00
7:53 AM,39.9,37.9,93,30.35,5.0,Calm,Calm,-,N/A,,Clear,0,2013-04-26 11:53:00
8:53 AM,54.0,37.0,53,30.36,9.0,Variable,3.5,-,N/A,,Clear,0,2013-04-26 12:53:00
9:53 AM,61.0,35.1,38,30.35,9.0,East,11.5,19.6,N/A,,Clear,90,2013-04-26 13:53:00
10:53 AM,64.0,37.0,37,30.36,9.0,ESE,9.2,-,N/A,,Clear,110,2013-04-26 14:53:00
11:53 AM,68.0,39.0,35,30.37,9.0,ESE,10.4,-,N/A,,Clear,120,2013-04-26 15:53:00
12:53 PM,71.1,39.0,31,30.36,9.0,East,5.8,16.1,N/A,,Clear,80,2013-04-26 16:53:00
1:53 PM,73.9,39.0,28,30.35,10.0,East,8.1,-,N/A,,Clear,80,2013-04-26 17:53:00
2:53 PM,75.0,39.9,28,30.33,10.0,Variable,6.9,17.3,N/A,,Clear,0,2013-04-26 18:53:00
3:53 PM,75.9,42.1,30,30.30,9.0,ESE,8.1,16.1,N/A,,Clear,120,2013-04-26 19:53:00
4:53 PM,75.9,41.0,29,30.29,10.0,Variable,4.6,-,N/A,,Clear,0,2013-04-26 20:53:00
5:53 PM,77.0,43.0,30,30.28,9.0,Calm,Calm,-,N/A,,Clear,0,2013-04-26 21:53:00
6:53 PM,75.9,45.0,33,30.29,9.0,SE,4.6,-,N/A,,Clear,140,2013-04-26 22:53:00
7:53 PM,68.0,51.1,55,30.29,9.0,Calm,Calm,-,N/A,,Clear,0,2013-04-26 23:53:00
8:53 PM,63.0,53.1,70,30.28,10.0,Calm,Calm,-,N/A,,Scattered Clouds,0,2013-04-27 00:53:00
9:53 PM,59.0,52.0,78,30.27,9.0,Calm,Calm,-,N/A,,Clear,0,2013-04-27 01:53:00
10:53 PM,57.0,51.1,81,30.29,8.0,Calm,Calm,-,N/A,,Clear,0,2013-04-27 02:53:00
11:53 PM,55.0,51.1,86,30.29,8.0,Calm,Calm,-,N/A,,Partly Cloudy,0,2013-04-27 03:53:00